Location: Bangkok
(13.7500°N, 100.5170°E)
Time: 07:56:28
(UTC+07:00)

Hubble Space Telescope - Visible Passes

Search period start: 06 July 2015 00:00
Search period end: 16 July 2015 00:00
Orbit: 541 x 546 km, 28.5° (Epoch: 04 July)

Date Brightness Start Highest point End Pass type
(mag) Time Alt. Az. Time Alt. Az. Time Alt. Az.
09 Jul 3.4 05:33:51 10° SSE 05:34:51 11° SSE 05:36:01 10° SE visible
10 Jul 3.1 05:23:35 10° S 05:26:04 16° SSE 05:28:40 10° ESE visible
11 Jul 2.6 05:14:01 10° SSW 05:17:15 22° SSE 05:20:33 10° E visible
12 Jul 2.1 05:05:20 13° SSW 05:08:26 31° SSE 05:12:10 10° E visible
13 Jul 1.5 04:57:07 20° SW 04:59:37 44° SSE 05:03:37 10° ENE visible
14 Jul 0.9 04:48:52 29° SW 04:50:48 65° SSE 04:54:55 10° ENE visible
15 Jul 0.7 04:40:34 41° WSW 04:41:58 88° NNW 04:46:09 10° ENE visible
